Envisat - Orbit

View from above orbital plane
View from above orbital plane
View from above satellite
View from above satellite

Ground track
Ground track

The orbit data is extracted from the following two-line orbital elements,

1 27386U 02009A   13145.48284587  .00000088  00000-0  43562-4 0  4105
2 27386 098.4294 214.2339 0001188 088.0614 272.0710 14.37611820587870
Epoch (UTC): 25 May 2013 11:35:17
Eccentricity: 0.0001188
inclination: 98.4294°
perigee height: 765 km
apogee height: 767 km
right ascension of ascending node: 214.2339°
argument of perigee: 88.0614°
revolutions per day: 14.37611820
mean anomaly at epoch: 272.0710°
orbit number at epoch: 58787

The dashed part of the orbit path shows where the satellite is in the earth's shadow,  

Developed and maintained by Chris Peat, Heavens-Above GmbH. Please read the updated FAQ before sending e-mail. Imprint. DLR